Weather History for KRIW - January, 2014

Change the Weather History Date:

Wednesday, January 15, 2014

  Actual Average Record
Temperature  
Mean Temperature 34 °F 20 °F  
Max Temperature 50 °F 31 °F 53 °F (1999)
Min Temperature 18 °F 9 °F -17 °F (2007)
Degree Days  
Heating Degree Days 31 45  
Month to date heating degree days 668 681  
Since 1 July heating degree days 3972 3998  
Cooling Degree Days 0 0  
Month to date cooling degree days 0 0  
Year to date cooling degree days 0 0  
Moisture  
Dew Point 15 °F    
Average Humidity 56    
Maximum Humidity 84    
Minimum Humidity 28    
Precipitation  
Precipitation 0.00 in 0.00 in 0.03 in (2008)
Month to date precipitation 0.53 0.13  
Year to date precipitation 0.53 0.13  
Snow  
Snow 0.00 in - - ()
Month to date snowfall 9.2  
Since 1 July snowfall 42.3  
Snow Depth T in    
Sea Level Pressure  
Sea Level Pressure 30.20 in    
Wind  
Wind Speed 22 mph (WNW)    
Max Wind Speed 44 mph    
Max Gust Speed 54 mph    
Visibility 10 miles    
Events Rain    
T = Trace of Precipitation, MM = Missing Value Source: NWS Daily Summary

Daily Weather History Graph

Daily Weather History Graph

Search for Another Location

Airport or City:

Trip Planner

Search our weather history database for the weather conditions in past years. The results will help you decide how hot, cold, wet, or windy it might be!

Date:

Astronomy

Jan. 15, 2014 Rise Set
Actual Time 7:42 AM MST 5:04 PM MST
Civil Twilight 7:10 AM MST 5:36 PM MST
Nautical Twilight 6:35 AM MST 6:11 PM MST
Astronomical Twilight 6:01 AM MST 6:45 PM MST
Moon 5:06 PM MST (1/15) 6:59 AM MST (1/15)
Length of Visible Light 10h 25m
Length of Day
9h 22m
Full, 100% of the Moon is Illuminated
Jan 15
Full
Jan 15
Full
Jan 23
Last Quarter
Jan 30
New
Feb 6
First Quarter

Hourly Weather History & Observations

Time (MST) Temp. Windchill Dew Point Humidity Pressure Visibility Wind Dir Wind Speed Gust Speed Precip Events Conditions
12:53 AM 21.0 °F 12.4 °F 16.0 °F 81% 30.35 in 10.0 mi WSW 6.9 mph - N/A   Clear
1:53 AM 21.0 °F - 16.0 °F 81% 30.33 in 10.0 mi Calm Calm - N/A   Clear
2:53 AM 19.9 °F 10.1 °F 15.1 °F 81% 30.32 in 10.0 mi SSW 8.1 mph - N/A   Clear
3:53 AM 21.9 °F 13.4 °F 16.0 °F 78% 30.30 in 10.0 mi SW 6.9 mph - N/A   Clear
4:53 AM 28.0 °F 20.8 °F 16.0 °F 61% 30.26 in 10.0 mi West 6.9 mph - N/A   Clear
5:53 AM 27.0 °F 23.0 °F 15.1 °F 61% 30.26 in 10.0 mi West 3.5 mph - N/A   Clear
6:30 AM 33.1 °F 20.9 °F 16.0 °F 50% 30.15 in 10.0 mi WNW 21.9 mph - N/A   Clear
6:53 AM 34.0 °F 23.8 °F 16.0 °F 48% 30.22 in 10.0 mi NW 16.1 mph - N/A   Clear
7:53 AM 39.0 °F 27.4 °F 16.0 °F 39% 30.19 in 10.0 mi NW 28.8 mph 40.3 mph 0.00 in Rain Light Rain
8:53 AM 39.9 °F 30.0 °F 15.1 °F 36% 30.21 in 10.0 mi NW 21.9 mph 28.8 mph 0.00 in   Clear
9:53 AM 32.0 °F 24.2 °F 17.1 °F 54% 30.27 in 10.0 mi NNW 9.2 mph - N/A   Clear
10:53 AM 45.0 °F 35.6 °F 16.0 °F 31% 30.20 in 10.0 mi WNW 27.6 mph 35.7 mph N/A   Clear
11:53 AM 45.0 °F 35.1 °F 15.1 °F 30% 30.13 in 10.0 mi WNW 31.1 mph 40.3 mph 0.00 in   Clear
12:53 PM 45.0 °F 37.6 °F 17.1 °F 33% 30.11 in 10.0 mi NW 17.3 mph - N/A   Clear
1:53 PM 48.9 °F - 16.0 °F 27% 30.12 in 10.0 mi NNW 29.9 mph 38.0 mph 0.00 in Rain Light Rain
2:53 PM 48.0 °F - 15.1 °F 27% 30.12 in 10.0 mi WNW 40.3 mph 51.8 mph 0.00 in Rain Light Rain
3:53 PM 45.0 °F 34.1 °F 14.0 °F 29% 30.14 in 10.0 mi WNW 38.0 mph 52.9 mph 0.00 in Rain Light Rain
4:53 PM 43.0 °F 32.4 °F 15.1 °F 32% 30.13 in 10.0 mi WNW 31.1 mph 41.4 mph 0.00 in Rain Light Rain
5:53 PM 41.0 °F 30.0 °F 15.1 °F 35% 30.16 in 10.0 mi NW 28.8 mph 38.0 mph 0.00 in   Clear
6:53 PM 42.1 °F 30.8 °F 12.9 °F 31% 30.14 in 10.0 mi WNW 33.4 mph 43.7 mph 0.00 in Rain Light Rain
7:53 PM 41.0 °F 29.7 °F 12.9 °F 32% 30.14 in 10.0 mi NW 31.1 mph 41.4 mph 0.00 in Rain Light Rain
8:53 PM 42.1 °F 31.5 °F 12.0 °F 29% 30.14 in 10.0 mi NW 28.8 mph 43.7 mph 0.00 in   Clear
9:53 PM 41.0 °F 30.7 °F 12.0 °F 31% 30.19 in 10.0 mi WNW 25.3 mph 35.7 mph N/A   Clear
10:53 PM 39.9 °F 28.4 °F 12.0 °F 32% 30.15 in 10.0 mi WNW 29.9 mph 39.1 mph N/A   Clear
11:53 PM 39.0 °F 27.4 °F 12.9 °F 34% 30.17 in 10.0 mi NW 28.8 mph 38.0 mph N/A   Clear